[Iaude] MPEC B174: 2024 BZ3 [a=1.01,e=0.19,i=2.1,H=27.7]

mpec at marsden.cfa.harvard.edu mpec at marsden.cfa.harvard.edu
Wed Jan 31 08:03:47 EST 2024


M.P.E.C. 2024-B174                             Issued 2024 January 31, 13:01 UT

     The Minor Planet Electronic Circulars contain information on unusual
         minor planets, routine data on comets and natural satellites,
         and occasional editorial announcements.  They are published
    on behalf of Division F of the International Astronomical Union by the
          Minor Planet Center, Smithsonian Astrophysical Observatory,
                          Cambridge, MA 02138, U.S.A.
			  
             Prepared using the Tamkin Foundation Computer Network

                              MPC at CFA.HARVARD.EDU
            URL https://www.minorplanetcenter.net/    ISSN 1523-6714

                                    2024 BZ3                                    


Observations:
     K24B03Z*1C2024 01 30.21584907 52 41.041+17 20 06.68         20.05GVEB174G96
     K24B03Z 1C2024 01 30.22151007 52 41.282+17 20 52.08         20.20GVEB174G96
     K24B03Z 1C2024 01 30.22715307 52 41.524+17 21 36.68         20.37GVEB174G96
     K24B03Z 1C2024 01 30.23280907 52 41.768+17 22 21.36         20.23GVEB174G96
     K24B03Z 1C2024 01 30.32565607 52 45.221+17 34 07.57         20.47GVEB174G96
     K24B03Z 1C2024 01 30.32618707 52 45.282+17 34 11.82         20.39GVEB174G96
     K24B03Z 1C2024 01 30.32671807 52 45.264+17 34 15.82         20.24GVEB174G96
     K24B03Z KB2024 01 30.83288607 54 28.71 +18 32 01.7          19.8 GXEB174I93
     K24B03Z KB2024 01 30.84599307 54 29.71 +18 33 32.3          20.1 GXEB174I93
     K24B03Z KB2024 01 30.85908907 54 30.64 +18 35 03.0          19.7 GXEB174I93
     K24B03Z KC2024 01 30.93577107 54 30.52 +18 43 33.5          20.2 GVEB174L01
     K24B03Z KC2024 01 30.93913707 54 30.69 +18 43 55.0          20.3 GVEB174L01
     K24B03Z KC2024 01 30.94261107 54 30.83 +18 44 17.1          20.5 GVEB174L01
     K24B03Z KC2024 01 30.94608807 54 31.00 +18 44 39.0          20.2 GVEB174L01
     K24B03Z KB2024 01 30.97210207 54 36.61 +18 47 34.4          19.7 GXEB174958
     K24B03Z KB2024 01 30.97682107 54 36.79 +18 48 03.4          20.3 GXEB174958
     K24B03Z KB2024 01 30.98154007 54 36.94 +18 48 32.9          19.9 GXEB174958
     K24B03Z  C2024 01 31.30296507 55 37.585+19 22 58.77         20.72wXEB174F52
     K24B03Z  C2024 01 31.31523807 55 37.877+19 24 14.75         20.72wXEB174F52
     K24B03Z  C2024 01 31.32750907 55 38.099+19 25 30.04         20.85wXEB174F52

Observer details:
958 Observatoire de Dax.  Observer P. Dupouy.  0.50-m f/4.5 Reflector + CMO.
F52 Pan-STARRS 2, Haleakala.  Observers J. Herman, T. Lowe, P. Minguez, A.
    Schultz, I. Smith.  Measurers K. Chambers, T. de Boer, J. Fairlamb, H.
    Gao, M. Huber, C.-C. Lin, E. Magnier, Y. Ramanjooloo, R. Wainscoat, R.
    Weryk.  1.8-m Ritchey-Chretien + CCD.
G96 Mt. Lemmon Survey.  Observer D. Rankin.  Measurers T. Beuden, V. F.
    Carvajal, D. Fay, J. B. Fazekas, D. C. Fuls, A. R. Gibbs, A. D. Grauer, H.
    Groeller, J. K. Hogan, R. A. Kowalski, S. M. Larson, G. J. Leonard, D.
    Rankin, R. L. Seaman, F. C. Shelly, K. W. Wierzchos.  1.5-m reflector +
    10K CCD.
I93 St Pardon de Conques.  Observer F. Losse.  0.40-m f/3.7 reflector + CMO.
L01 Visnjan Observatory, Tican.  Observer K. Korlevic.  1.0-m f/2.9 reflector
    + CCD.

Orbital elements:
2024 BZ3                                                 Earth MOID = 0.0060 AU
Epoch 2023 Sept. 13.0 TT = JDT 2460200.5                Veres                   
M 302.92715              (2000.0)            P               Q                  
n   0.96732047     Peri.  257.65946     +0.86532262     -0.50045963             
a   1.0125640      Node   132.36371     +0.47311248     +0.79745109             
e   0.1873700      Incl.    2.13390     +0.16547311     +0.33706369             
P   1.02           H   27.78          G   0.15           U   6                  
Residuals in seconds of arc
240130 G96  0.3+  0.0     240130 I93  0.4+  0.5+    240130 958  0.7+  0.6+
240130 G96  0.1+  0.3+    240130 I93  0.1+  0.1+    240130 958  0.6+  0.3-
240130 G96  0.0   0.2+    240130 I93  0.0   0.7+    240130 958  0.1+  0.6-
240130 G96  0.1+  0.2+    240130 L01  0.6-  0.2+    240131 F52  0.3+  0.3-
240130 G96  0.0   0.3-    240130 L01  0.2-  0.2+    240131 F52  0.2+  0.2-
240130 G96 (0.6+  0.1+)   240130 L01  0.4-  0.2+    240131 F52  0.1+  0.1-
240130 G96  0.0   0.2+    240130 L01  0.1-  0.0

Ephemeris:
2024 BZ3                 a,e,i = 1.01, 0.19, 2                   q = 0.8228
Date    TT    R. A. (2000) Decl.     Delta      r    Elong.  Phase     V
2024 01 01    20 16 03.0 -34 31 07   0.07670 0.9134    23.4   154.7    31.4
...
2024 01 16    20 39 54.2 -44 20 29   0.02527 0.9609    25.6   153.8    28.9
...
2024 01 24    06 32 52.1 -38 47 44   0.0065050.9872   116.4    63.2    19.1
...
2024 01 30    07 51 52.5 +16 53 07   0.02230 1.0067   166.9    12.8    20.3
2024 01 31    07 54 40.5 +18 52 49   0.02548 1.0099   166.6    13.0    20.6
2024 02 01    07 56 55.7 +20 25 40   0.02871 1.0131   166.0    13.6    20.9
...
2024 02 07    08 05 00.4 +25 14 40   0.04868 1.0321   160.2    18.9    22.3
...
2024 02 15    08 11 38.8 +27 22 23   0.07694 1.0566   152.7    25.3    23.5
...
2024 03 01    08 25 21.3 +27 49 00   0.1353  1.0989   140.7    34.8    25.1

M. P. C. Staff               (C) Copyright 2024 MPC           M.P.E.C. 2024-B174





More information about the Iaude mailing list